Regional Weather Roundup
Issued by NWS Green Bay, WI

Home | Current Version | Previous Version | Text Only | Print | Product List | Glossary On
Versions: 1 2 3 4 5 6 7 8 9 10 11 12 13 14 15 16 17 18 19 20 21 22 23 24 25 26 27 28 29 30 31 32 33 34 35 36 37 38 39 40 41 42 43 44 45 46 47 48 49 50
000
ASUS43 KGRB 291011
RWRGRB

NORTH-CENTRAL AND NORTHEAST WISCONSIN REGIONAL WEATHER ROUNDUP
NATIONAL WEATHER SERVICE GREEN BAY WI
500 AM CDT THU SEP 29 2016

WIZ005-009-010>012-018-019-291100-
NORTH CENTRAL WISCONSIN

CITY           SKY/WX    TMP DP  RH WIND       PRES   REMARKS
IRONWOOD       CLOUDY    48  48 100 CALM      30.44S
MANITOWISH WTR PTCLDY    48  48 100 NE7       30.42R
ARBOR VITAE    CLOUDY    52  50  95 N5        30.41R
EAGLE RIVER    CLOUDY    47  47 100 N7        30.41R FOG
LAND O LAKES   FOG       48  48 100 N6        30.43R VSB 1
RHINELANDER    MOCLDY    46  46 100 VRB5      30.40R
PHILLIPS       CLEAR     46  46  99 NE6       30.40S
ANTIGO         CLEAR     46  46 100 N9        30.37R
TOMAHAWK       PTCLDY    42  42  97 NW5       30.40R FOG
MERRILL        CLEAR     46  46 100 N3        30.38S
$$

WIZ013-073-291100-
NORTHEAST WISCONSIN

CITY           SKY/WX    TMP DP  RH WIND       PRES   REMARKS
IRON MOUNTAIN  CLEAR     48  45  89 NW6       30.37R
MARINETTE      CLEAR     52  51  97 N8        30.32R
OCONTO         PTCLDY    52  50  92 N7        30.31S
$$

WIZ017-030-035>037-045-291100-
CENTRAL WISCONSIN

CITY           SKY/WX    TMP DP  RH WIND       PRES   REMARKS
MEDFORD        CLEAR    N/A N/A N/A N7        30.38R
WAUSAU         CLEAR     48  46  93 NW6       30.35R
MOSINEE        CLEAR     46  46 100 N13       30.36R
MARSHFIELD     CLEAR     49  45  86 N7        30.35R
WISC RAPIDS    CLEAR     49  48  97 N10       30.35R
STEVENS POINT  CLEAR     46  46 100 N7        30.34R
WAUPACA        CLEAR     52  50  95 N5        30.32R
SHAWANO        CLEAR     53  49  89 N5        30.33S
CLINTONVILLE   CLEAR     50  48  93 N9        30.31S
WAUTOMA        CLEAR     51  49  92 NE9       30.30S
$$

WIZ038-039-048-051-291100-
FOX VALLEY

CITY           SKY/WX    TMP DP  RH WIND       PRES   REMARKS
NWS GREEN BAY  CLEAR     52  52 100 N9        30.30R
APPLETON       CLEAR     50  50 100 N13       30.28S
OSHKOSH        MOCLDY    53  49  86 N14       30.28R
FOND DU LAC    CLOUDY    56  52  86 N16       30.28R
$$

WIZ022-050-052-291100-
EAST CENTRAL WISCONSIN

CITY           SKY/WX    TMP DP  RH WIND       PRES   REMARKS
EPHRAIM        FAIR      57  56  97 N8        30.30S
WASHINGTON ISL PTSUNNY   57  55  91 NE13      30.31S
STURGEON BAY   CLEAR     58  55  90 N10       30.30R
MANITOWOC      PTCLDY    57  53  86 MISG      30.26R
SHEBOYGAN      MOCLDY    56  52  86 N14G21    30.23R
$$

LMZ563-521-522-541>543-291100-
LAKESHORE

STATION/POSITION TIME  TEMP    WIND        PRES    VSBY  WAVE
                       AIR SEA DIR/SP/G                  HT/PER
                 (UTC) (F)     (DEG/KT/KT) (MB)    (MI)  (FT/S)
SHEBOYGAN LKSHOR 1000   57     350/ 22/ 25 1023.2R
KEWAUNEE LKSHORE 0900   57     360/  7/ 13 1024.1R
NORTHPORT PIER   0900   60      20/ 13/ 19 1026.1R
N MID LAKE BUOY  0950   63 66   10/ 17/ 21 1025.4R         3/ 5
SISTER BAY LKSHO 0908   58      20/ 13/ 18   N/A
CHAMBERS ISLAND  0900   59     350/ 20/ 23 1025.7R
MENOMINEE LKSHOR 0900   56     360/ 15/ 17 1025.4R
$$



USA.gov is the U.S. government's official web portal to all federal, state and local government web resources and services.